| time (UTC) | temp F | wind direction | speed MPH | gust MPH | rain 1hr in | rain 24hr in | rain mn in | humidity % | barometer mb |
| 20260507220305 | 77 | 194 | 4.0 | 10.0 | 0.00 | 0.00 | 0.00 | 29 | 1010.9 |
| 20260507220205 | 77 | 194 | 4.0 | 10.0 | 0.00 | 0.00 | 0.00 | 29 | 1010.8 |
| 20260507220105 | 77 | 195 | 4.0 | 10.0 | 0.00 | 0.00 | 0.00 | 28 | 1010.8 |
| 20260507220005 | 77 | 190 | 4.0 | 10.0 | 0.00 | 0.00 | 0.00 | 29 | 1010.8 |
| 20260507215804 | 77 | 193 | 3.0 | 10.0 | 0.00 | 0.00 | 0.00 | 28 | 1010.8 |
| 20260507215704 | 77 | 193 | 3.0 | 10.0 | 0.00 | 0.00 | 0.00 | 29 | 1010.8 |
| 20260507215604 | 77 | 190 | 3.0 | 10.0 | 0.00 | 0.00 | 0.00 | 28 | 1010.7 |
| 20260507215504 | 77 | 207 | 3.0 | 9.0 | 0.00 | 0.00 | 0.00 | 27 | 1010.8 |
| 20260507215306 | 77 | 210 | 3.0 | 12.0 | 0.00 | 0.00 | 0.00 | 28 | 1010.8 |
| 20260507215204 | 77 | 212 | 3.0 | 12.0 | 0.00 | 0.00 | 0.00 | 29 | 1010.9 |
| 20260507215104 | 77 | 214 | 3.0 | 12.0 | 0.00 | 0.00 | 0.00 | 29 | 1010.9 |
| 20260507215004 | 77 | 213 | 4.0 | 16.0 | 0.00 | 0.00 | 0.00 | 30 | 1010.9 |
| 20260507214904 | 76 | 212 | 4.0 | 16.0 | 0.00 | 0.00 | 0.00 | 30 | 1010.9 |
| 20260507214804 | 76 | 210 | 4.0 | 16.0 | 0.00 | 0.00 | 0.00 | 29 | 1010.9 |
| 20260507214705 | 76 | 209 | 4.0 | 16.0 | 0.00 | 0.00 | 0.00 | 28 | 1010.9 |
| 20260507214605 | 76 | 211 | 4.0 | 16.0 | 0.00 | 0.00 | 0.00 | 28 | 1011.0 |
| 20260507214505 | 76 | 209 | 4.0 | 16.0 | 0.00 | 0.00 | 0.00 | 29 | 1011.0 |
| 20260507214405 | 76 | 209 | 3.0 | 16.0 | 0.00 | 0.00 | 0.00 | 28 | 1011.0 |
| 20260507214304 | 76 | 209 | 3.0 | 16.0 | 0.00 | 0.00 | 0.00 | 29 | 1011.0 |
| 20260507214204 | 76 | 206 | 3.0 | 16.0 | 0.00 | 0.00 | 0.00 | 28 | 1011.0 |
| 20260507214104 | 76 | 203 | 3.0 | 16.0 | 0.00 | 0.00 | 0.00 | 28 | 1011.0 |
| 20260507214004 | 76 | 200 | 2.0 | 11.0 | 0.00 | 0.00 | 0.00 | 30 | 1011.0 |
| 20260507213904 | 76 | 201 | 2.0 | 7.0 | 0.00 | 0.00 | 0.00 | 29 | 1011.0 |
| 20260507213804 | 76 | 203 | 2.0 | 11.0 | 0.00 | 0.00 | 0.00 | 28 | 1011.0 |
| 20260507213604 | 76 | 199 | 3.0 | 11.0 | 0.00 | 0.00 | 0.00 | 30 | 1011.1 |
| 20260507213404 | 76 | 196 | 4.0 | 11.0 | 0.00 | 0.00 | 0.00 | 31 | 1011.1 |
| 20260507213304 | 75 | 199 | 4.0 | 11.0 | 0.00 | 0.00 | 0.00 | 30 | 1011.2 |
| 20260507213204 | 75 | 201 | 4.0 | 11.0 | 0.00 | 0.00 | 0.00 | 30 | 1011.2 |
| 20260507213104 | 75 | 204 | 5.0 | 11.0 | 0.00 | 0.00 | 0.00 | 31 | 1011.2 |
| 20260507213004 | 75 | 209 | 5.0 | 11.0 | 0.00 | 0.00 | 0.00 | 30 | 1011.3 |
| 20260507212905 | 75 | 212 | 5.0 | 11.0 | 0.00 | 0.00 | 0.00 | 30 | 1011.3 |
| 20260507212704 | 75 | 214 | 5.0 | 11.0 | 0.00 | 0.00 | 0.00 | 31 | 1011.3 |
| 20260507212604 | 75 | 213 | 5.0 | 11.0 | 0.00 | 0.00 | 0.00 | 30 | 1011.3 |
| 20260507212504 | 75 | 217 | 5.0 | 11.0 | 0.00 | 0.00 | 0.00 | 29 | 1011.3 |
| 20260507212404 | 75 | 220 | 5.0 | 11.0 | 0.00 | 0.00 | 0.00 | 30 | 1011.4 |
| 20260507212307 | 75 | 220 | 4.0 | 11.0 | 0.00 | 0.00 | 0.00 | 30 | 1011.4 |
| 20260507212204 | 75 | 217 | 4.0 | 11.0 | 0.00 | 0.00 | 0.00 | 29 | 1011.3 |
| 20260507212104 | 75 | 217 | 4.0 | 11.0 | 0.00 | 0.00 | 0.00 | 31 | 1011.5 |
| 20260507212004 | 75 | 214 | 4.0 | 11.0 | 0.00 | 0.00 | 0.00 | 30 | 1011.4 |
| 20260507211904 | 75 | 212 | 4.0 | 11.0 | 0.00 | 0.00 | 0.00 | 30 | 1011.5 |
| 20260507211804 | 75 | 211 | 4.0 | 9.0 | 0.00 | 0.00 | 0.00 | 30 | 1011.4 |
| 20260507211704 | 75 | 210 | 4.0 | 12.0 | 0.00 | 0.00 | 0.00 | 30 | 1011.5 |
| 20260507211604 | 75 | 207 | 4.0 | 12.0 | 0.00 | 0.00 | 0.00 | 30 | 1011.6 |
| 20260507211504 | 75 | 201 | 4.0 | 12.0 | 0.00 | 0.00 | 0.00 | 30 | 1011.5 |
| 20260507211404 | 75 | 197 | 4.0 | 12.0 | 0.00 | 0.00 | 0.00 | 31 | 1011.5 |
| 20260507211304 | 75 | 195 | 4.0 | 12.0 | 0.00 | 0.00 | 0.00 | 30 | 1011.5 |
| 20260507211204 | 75 | 194 | 4.0 | 12.0 | 0.00 | 0.00 | 0.00 | 32 | 1011.5 |
| 20260507211004 | 75 | 195 | 4.0 | 12.0 | 0.00 | 0.00 | 0.00 | 31 | 1011.5 |
| 20260507210904 | 75 | 196 | 4.0 | 12.0 | 0.00 | 0.00 | 0.00 | 30 | 1011.5 |
| 20260507210505 | 75 | 208 | 3.0 | 8.0 | 0.00 | 0.00 | 0.00 | 32 | 1011.6 |
| 20260507210204 | 75 | 217 | 4.0 | 12.0 | 0.00 | 0.00 | 0.00 | 32 | 1011.6 |
| 20260507210104 | 75 | 218 | 4.0 | 12.0 | 0.00 | 0.00 | 0.00 | 30 | 1011.7 |
| 20260507210005 | 75 | 217 | 4.0 | 12.0 | 0.00 | 0.00 | 0.00 | 30 | 1011.7 |
| 20260507205804 | 75 | 217 | 4.0 | 12.0 | 0.00 | 0.00 | 0.00 | 32 | 1011.7 |
| 20260507205604 | 75 | 218 | 4.0 | 12.0 | 0.00 | 0.00 | 0.00 | 31 | 1011.8 |
| 20260507205504 | 75 | 217 | 4.0 | 12.0 | 0.00 | 0.00 | 0.00 | 30 | 1011.8 |
| 20260507205404 | 75 | 217 | 4.0 | 12.0 | 0.00 | 0.00 | 0.00 | 31 | 1011.8 |
| 20260507205204 | 75 | 212 | 4.0 | 10.0 | 0.00 | 0.00 | 0.00 | 32 | 1011.7 |
| 20260507205104 | 75 | 209 | 4.0 | 10.0 | 0.00 | 0.00 | 0.00 | 32 | 1011.8 |
| 20260507204904 | 74 | 215 | 4.0 | 10.0 | 0.00 | 0.00 | 0.00 | 31 | 1011.8 |
| 20260507204804 | 74 | 210 | 4.0 | 10.0 | 0.00 | 0.00 | 0.00 | 32 | 1011.8 |
| 20260507204704 | 74 | 213 | 4.0 | 10.0 | 0.00 | 0.00 | 0.00 | 33 | 1011.8 |
| 20260507204604 | 74 | 214 | 4.0 | 10.0 | 0.00 | 0.00 | 0.00 | 31 | 1011.9 |
| 20260507204505 | 74 | 215 | 4.0 | 10.0 | 0.00 | 0.00 | 0.00 | 32 | 1011.9 |
| 20260507204404 | 74 | 215 | 4.0 | 7.0 | 0.00 | 0.00 | 0.00 | 31 | 1011.9 |
| 20260507204304 | 74 | 218 | 3.0 | 7.0 | 0.00 | 0.00 | 0.00 | 32 | 1011.9 |
| 20260507204205 | 74 | 222 | 3.0 | 7.0 | 0.00 | 0.00 | 0.00 | 31 | 1011.9 |
| 20260507204105 | 74 | 226 | 3.0 | 7.0 | 0.00 | 0.00 | 0.00 | 33 | 1012.0 |
| 20260507204004 | 74 | 223 | 3.0 | 7.0 | 0.00 | 0.00 | 0.00 | 30 | 1012.0 |
| 20260507203905 | 74 | 220 | 3.0 | 7.0 | 0.00 | 0.00 | 0.00 | 32 | 1012.0 |
| 20260507203805 | 74 | 224 | 3.0 | 10.0 | 0.00 | 0.00 | 0.00 | 31 | 1012.1 |
| 20260507203705 | 74 | 225 | 3.0 | 10.0 | 0.00 | 0.00 | 0.00 | 32 | 1012.1 |
| 20260507203605 | 74 | 219 | 3.0 | 10.0 | 0.00 | 0.00 | 0.00 | 31 | 1012.1 |
| 20260507203405 | 74 | 219 | 3.0 | 10.0 | 0.00 | 0.00 | 0.00 | 32 | 1012.2 |
| 20260507203304 | 74 | 216 | 3.0 | 10.0 | 0.00 | 0.00 | 0.00 | 31 | 1012.2 |
| 20260507203205 | 74 | 210 | 3.0 | 10.0 | 0.00 | 0.00 | 0.00 | 32 | 1012.2 |
| 20260507203004 | 74 | 205 | 4.0 | 10.0 | 0.00 | 0.00 | 0.00 | 32 | 1012.3 |
| 20260507202905 | 74 | 207 | 4.0 | 10.0 | 0.00 | 0.00 | 0.00 | 33 | 1012.4 |
| 20260507202704 | 73 | 202 | 5.0 | 12.0 | 0.00 | 0.00 | 0.00 | 31 | 1012.2 |
| 20260507202604 | 73 | 204 | 5.0 | 12.0 | 0.00 | 0.00 | 0.00 | 33 | 1012.3 |
| 20260507202504 | 73 | 206 | 5.0 | 12.0 | 0.00 | 0.00 | 0.00 | 33 | 1012.3 |
| 20260507202404 | 73 | 204 | 6.0 | 12.0 | 0.00 | 0.00 | 0.00 | 32 | 1012.4 |
| 20260507202306 | 73 | 207 | 6.0 | 12.0 | 0.00 | 0.00 | 0.00 | 32 | 1012.3 |
| 20260507202204 | 73 | 209 | 5.0 | 12.0 | 0.00 | 0.00 | 0.00 | 32 | 1012.4 |
| 20260507202104 | 73 | 214 | 5.0 | 12.0 | 0.00 | 0.00 | 0.00 | 33 | 1012.5 |
| 20260507202005 | 73 | 217 | 5.0 | 12.0 | 0.00 | 0.00 | 0.00 | 32 | 1012.5 |
| 20260507201904 | 73 | 216 | 5.0 | 12.0 | 0.00 | 0.00 | 0.00 | 32 | 1012.5 |
| 20260507201504 | 73 | 215 | 4.0 | 12.0 | 0.00 | 0.00 | 0.00 | 31 | 1012.4 |
| 20260507201404 | 73 | 220 | 4.0 | 10.0 | 0.00 | 0.00 | 0.00 | 33 | 1012.6 |
| 20260507201304 | 73 | 219 | 4.0 | 9.0 | 0.00 | 0.00 | 0.00 | 33 | 1012.6 |
| 20260507201204 | 73 | 219 | 4.0 | 9.0 | 0.00 | 0.00 | 0.00 | 32 | 1012.6 |
| 20260507201104 | 73 | 216 | 4.0 | 9.0 | 0.00 | 0.00 | 0.00 | 32 | 1012.6 |
| 20260507201004 | 73 | 214 | 4.0 | 10.0 | 0.00 | 0.00 | 0.00 | 32 | 1012.7 |
| 20260507200904 | 73 | 212 | 4.0 | 10.0 | 0.00 | 0.00 | 0.00 | 32 | 1012.7 |
| 20260507200804 | 73 | 212 | 4.0 | 10.0 | 0.00 | 0.00 | 0.00 | 32 | 1012.8 |
| 20260507200704 | 73 | 216 | 4.0 | 10.0 | 0.00 | 0.00 | 0.00 | 33 | 1012.8 |
| 20260507200604 | 73 | 220 | 4.0 | 10.0 | 0.00 | 0.00 | 0.00 | 32 | 1012.7 |
| 20260507200504 | 73 | 223 | 4.0 | 10.0 | 0.00 | 0.00 | 0.00 | 32 | 1012.7 |
| 20260507200405 | 73 | 223 | 4.0 | 10.0 | 0.00 | 0.00 | 0.00 | 32 | 1012.7 |
| 20260507200305 | 73 | 225 | 4.0 | 10.0 | 0.00 | 0.00 | 0.00 | 32 | 1012.8 |
| 20260507200205 | 73 | 227 | 4.0 | 10.0 | 0.00 | 0.00 | 0.00 | 32 | 1012.7 |
| 20260507200104 | 73 | 228 | 4.0 | 10.0 | 0.00 | 0.00 | 0.00 | 32 | 1012.8 |
| 20260507200005 | 73 | 228 | 3.0 | 8.0 | 0.00 | 0.00 | 0.00 | 33 | 1012.7 |
| 20260507195905 | 73 | 234 | 3.0 | 6.0 | 0.00 | 0.00 | 0.00 | 32 | 1012.7 |
| 20260507195804 | 72 | 237 | 3.0 | 6.0 | 0.00 | 0.00 | 0.00 | 33 | 1012.8 |
| 20260507195705 | 72 | 237 | 3.0 | 6.0 | 0.00 | 0.00 | 0.00 | 33 | 1012.9 |
| 20260507195605 | 72 | 238 | 3.0 | 6.0 | 0.00 | 0.00 | 0.00 | 33 | 1012.8 |
| 20260507195505 | 72 | 239 | 3.0 | 8.0 | 0.00 | 0.00 | 0.00 | 34 | 1012.9 |
| 20260507195404 | 72 | 243 | 3.0 | 9.0 | 0.00 | 0.00 | 0.00 | 36 | 1012.9 |
| 20260507195306 | 72 | 245 | 3.0 | 9.0 | 0.00 | 0.00 | 0.00 | 36 | 1012.9 |
| 20260507195104 | 72 | 240 | 4.0 | 9.0 | 0.00 | 0.00 | 0.00 | 37 | 1012.9 |
| 20260507195004 | 72 | 245 | 4.0 | 9.0 | 0.00 | 0.00 | 0.00 | 34 | 1012.9 |
| 20260507194904 | 72 | 243 | 4.0 | 9.0 | 0.00 | 0.00 | 0.00 | 33 | 1013.0 |
| 20260507194705 | 72 | 240 | 4.0 | 9.0 | 0.00 | 0.00 | 0.00 | 35 | 1013.1 |
| 20260507194504 | 72 | 238 | 4.0 | 9.0 | 0.00 | 0.00 | 0.00 | 37 | 1013.2 |
| 20260507194405 | 71 | 236 | 4.0 | 9.0 | 0.00 | 0.00 | 0.00 | 35 | 1013.1 |
| 20260507194305 | 71 | 233 | 4.0 | 9.0 | 0.00 | 0.00 | 0.00 | 36 | 1013.1 |
| 20260507194205 | 71 | 230 | 4.0 | 10.0 | 0.00 | 0.00 | 0.00 | 35 | 1013.2 |
| 20260507194004 | 71 | 218 | 5.0 | 10.0 | 0.00 | 0.00 | 0.00 | 34 | 1013.2 |
| 20260507193804 | 71 | 210 | 5.0 | 10.0 | 0.00 | 0.00 | 0.00 | 35 | 1013.3 |
| 20260507193704 | 71 | 210 | 5.0 | 10.0 | 0.00 | 0.00 | 0.00 | 35 | 1013.3 |
| 20260507193604 | 70 | 210 | 5.0 | 10.0 | 0.00 | 0.00 | 0.00 | 35 | 1013.2 |
| 20260507193504 | 70 | 207 | 6.0 | 13.0 | 0.00 | 0.00 | 0.00 | 34 | 1013.2 |
| 20260507193404 | 70 | 205 | 6.0 | 13.0 | 0.00 | 0.00 | 0.00 | 36 | 1013.2 |
| 20260507193104 | 70 | 214 | 6.0 | 13.0 | 0.00 | 0.00 | 0.00 | 34 | 1013.4 |
| 20260507193004 | 70 | 215 | 6.0 | 13.0 | 0.00 | 0.00 | 0.00 | 35 | 1013.3 |
| 20260507192905 | 70 | 217 | 6.0 | 13.0 | 0.00 | 0.00 | 0.00 | 35 | 1013.4 |
| 20260507192804 | 70 | 219 | 6.0 | 13.0 | 0.00 | 0.00 | 0.00 | 34 | 1013.4 |
| 20260507192704 | 70 | 221 | 5.0 | 13.0 | 0.00 | 0.00 | 0.00 | 34 | 1013.4 |
| 20260507192504 | 70 | 229 | 4.0 | 12.0 | 0.00 | 0.00 | 0.00 | 33 | 1013.4 |
| 20260507192405 | 71 | 235 | 4.0 | 12.0 | 0.00 | 0.00 | 0.00 | 34 | 1013.4 |
| 20260507192306 | 71 | 237 | 4.0 | 12.0 | 0.00 | 0.00 | 0.00 | 35 | 1013.4 |
| 20260507192104 | 71 | 242 | 3.0 | 9.0 | 0.00 | 0.00 | 0.00 | 37 | 1013.5 |
| 20260507192004 | 70 | 236 | 4.0 | 11.0 | 0.00 | 0.00 | 0.00 | 36 | 1013.5 |
| 20260507191904 | 70 | 231 | 4.0 | 11.0 | 0.00 | 0.00 | 0.00 | 36 | 1013.5 |
| 20260507191804 | 70 | 228 | 4.0 | 11.0 | 0.00 | 0.00 | 0.00 | 36 | 1013.5 |
| 20260507191604 | 70 | 221 | 4.0 | 11.0 | 0.00 | 0.00 | 0.00 | 37 | 1013.5 |
| 20260507191405 | 70 | 220 | 4.0 | 11.0 | 0.00 | 0.00 | 0.00 | 35 | 1013.5 |
| 20260507191305 | 70 | 218 | 4.0 | 11.0 | 0.00 | 0.00 | 0.00 | 35 | 1013.6 |
| 20260507191204 | 70 | 215 | 5.0 | 13.0 | 0.00 | 0.00 | 0.00 | 37 | 1013.5 |
| 20260507191104 | 70 | 213 | 4.0 | 13.0 | 0.00 | 0.00 | 0.00 | 34 | 1013.6 |
| 20260507191004 | 70 | 215 | 4.0 | 13.0 | 0.00 | 0.00 | 0.00 | 35 | 1013.6 |
| 20260507190905 | 70 | 216 | 3.0 | 13.0 | 0.00 | 0.00 | 0.00 | 35 | 1013.6 |
| 20260507190804 | 70 | 221 | 4.0 | 13.0 | 0.00 | 0.00 | 0.00 | 35 | 1013.6 |
| 20260507190705 | 70 | 222 | 4.0 | 13.0 | 0.00 | 0.00 | 0.00 | 36 | 1013.6 |
| 20260507190604 | 70 | 219 | 4.0 | 13.0 | 0.00 | 0.00 | 0.00 | 36 | 1013.6 |
| 20260507190504 | 70 | 215 | 4.0 | 13.0 | 0.00 | 0.00 | 0.00 | 36 | 1013.6 |
| 20260507190404 | 70 | 212 | 4.0 | 13.0 | 0.00 | 0.00 | 0.00 | 36 | 1013.6 |
| 20260507190304 | 70 | 207 | 4.0 | 13.0 | 0.00 | 0.00 | 0.00 | 37 | 1013.7 |
| 20260507190104 | 70 | 206 | 4.0 | 11.0 | 0.00 | 0.00 | 0.00 | 38 | 1013.7 |
| 20260507185904 | 69 | 207 | 5.0 | 11.0 | 0.00 | 0.00 | 0.00 | 37 | 1013.7 |
| 20260507185704 | 69 | 197 | 5.0 | 11.0 | 0.00 | 0.00 | 0.00 | 36 | 1013.7 |
| 20260507185604 | 69 | 199 | 5.0 | 12.0 | 0.00 | 0.00 | 0.00 | 36 | 1013.7 |
| 20260507185504 | 69 | 199 | 5.0 | 12.0 | 0.00 | 0.00 | 0.00 | 35 | 1013.7 |
| 20260507185404 | 69 | 199 | 5.0 | 14.0 | 0.00 | 0.00 | 0.00 | 35 | 1013.7 |
| 20260507185306 | 69 | 199 | 5.0 | 14.0 | 0.00 | 0.00 | 0.00 | 36 | 1013.8 |
| 20260507185204 | 69 | 197 | 5.0 | 14.0 | 0.00 | 0.00 | 0.00 | 37 | 1013.8 |
| 20260507185104 | 69 | 198 | 5.0 | 14.0 | 0.00 | 0.00 | 0.00 | 38 | 1013.8 |
| 20260507185005 | 69 | 195 | 5.0 | 14.0 | 0.00 | 0.00 | 0.00 | 36 | 1013.8 |
| 20260507184904 | 69 | 192 | 5.0 | 14.0 | 0.00 | 0.00 | 0.00 | 37 | 1013.8 |
| 20260507184805 | 69 | 200 | 5.0 | 14.0 | 0.00 | 0.00 | 0.00 | 37 | 1013.8 |
| 20260507184704 | 68 | 201 | 5.0 | 14.0 | 0.00 | 0.00 | 0.00 | 39 | 1013.8 |
| 20260507184605 | 68 | 201 | 5.0 | 14.0 | 0.00 | 0.00 | 0.00 | 37 | 1013.9 |
| 20260507184505 | 68 | 201 | 5.0 | 14.0 | 0.00 | 0.00 | 0.00 | 36 | 1013.8 |
| 20260507184405 | 68 | 201 | 5.0 | 13.0 | 0.00 | 0.00 | 0.00 | 37 | 1013.9 |
| 20260507184304 | 68 | 202 | 5.0 | 13.0 | 0.00 | 0.00 | 0.00 | 37 | 1013.9 |
| 20260507184204 | 68 | 205 | 5.0 | 13.0 | 0.00 | 0.00 | 0.00 | 37 | 1013.8 |
| 20260507184004 | 68 | 206 | 4.0 | 13.0 | 0.00 | 0.00 | 0.00 | 38 | 1013.9 |
| 20260507183904 | 68 | 212 | 4.0 | 13.0 | 0.00 | 0.00 | 0.00 | 38 | 1014.0 |
| 20260507183804 | 68 | 205 | 4.0 | 13.0 | 0.00 | 0.00 | 0.00 | 38 | 1014.0 |
| 20260507183704 | 68 | 204 | 4.0 | 13.0 | 0.00 | 0.00 | 0.00 | 38 | 1014.0 |
| 20260507183604 | 68 | 203 | 4.0 | 13.0 | 0.00 | 0.00 | 0.00 | 37 | 1014.0 |
| 20260507183504 | 69 | 204 | 4.0 | 11.0 | 0.00 | 0.00 | 0.00 | 37 | 1013.9 |
| 20260507183404 | 69 | 206 | 3.0 | 11.0 | 0.00 | 0.00 | 0.00 | 39 | 1013.9 |
| 20260507183304 | 69 | 213 | 3.0 | 11.0 | 0.00 | 0.00 | 0.00 | 40 | 1014.0 |
| 20260507183204 | 68 | 213 | 3.0 | 11.0 | 0.00 | 0.00 | 0.00 | 40 | 1014.0 |
| 20260507183104 | 68 | 216 | 4.0 | 13.0 | 0.00 | 0.00 | 0.00 | 40 | 1014.0 |
| 20260507183004 | 68 | 214 | 4.0 | 13.0 | 0.00 | 0.00 | 0.00 | 39 | 1014.0 |
| 20260507182804 | 68 | 214 | 4.0 | 13.0 | 0.00 | 0.00 | 0.00 | 41 | 1013.9 |
| 20260507182704 | 68 | 216 | 4.0 | 13.0 | 0.00 | 0.00 | 0.00 | 39 | 1014.0 |
| 20260507182604 | 68 | 213 | 5.0 | 13.0 | 0.00 | 0.00 | 0.00 | 40 | 1014.0 |
| 20260507182504 | 68 | 211 | 5.0 | 14.0 | 0.00 | 0.00 | 0.00 | 38 | 1014.1 |
| 20260507182404 | 68 | 208 | 5.0 | 14.0 | 0.00 | 0.00 | 0.00 | 39 | 1014.1 |
| 20260507182204 | 67 | 205 | 6.0 | 14.0 | 0.00 | 0.00 | 0.00 | 40 | 1014.2 |
| 20260507182105 | 67 | 202 | 5.0 | 14.0 | 0.00 | 0.00 | 0.00 | 38 | 1014.2 |
| 20260507182005 | 67 | 202 | 5.0 | 14.0 | 0.00 | 0.00 | 0.00 | 40 | 1014.2 |
| 20260507181904 | 67 | 203 | 5.0 | 14.0 | 0.00 | 0.00 | 0.00 | 40 | 1014.2 |
| 20260507181804 | 67 | 203 | 6.0 | 14.0 | 0.00 | 0.00 | 0.00 | 38 | 1014.1 |
| 20260507181704 | 67 | 201 | 6.0 | 14.0 | 0.00 | 0.00 | 0.00 | 38 | 1014.3 |
| 20260507181604 | 67 | 200 | 6.0 | 14.0 | 0.00 | 0.00 | 0.00 | 40 | 1014.3 |
| 20260507181404 | 67 | 202 | 5.0 | 12.0 | 0.00 | 0.00 | 0.00 | 41 | 1014.3 |
| 20260507181304 | 67 | 204 | 5.0 | 12.0 | 0.00 | 0.00 | 0.00 | 42 | 1014.3 |
| 20260507181204 | 66 | 205 | 5.0 | 12.0 | 0.00 | 0.00 | 0.00 | 43 | 1014.3 |
| 20260507181005 | 66 | 205 | 5.0 | 12.0 | 0.00 | 0.00 | 0.00 | 41 | 1014.4 |
| 20260507180904 | 66 | 207 | 5.0 | 13.0 | 0.00 | 0.00 | 0.00 | 40 | 1014.4 |
| 20260507180804 | 67 | 206 | 6.0 | 17.0 | 0.00 | 0.00 | 0.00 | 40 | 1014.4 |
| 20260507180704 | 67 | 208 | 6.0 | 17.0 | 0.00 | 0.00 | 0.00 | 40 | 1014.5 |
| 20260507180604 | 66 | 209 | 6.0 | 17.0 | 0.00 | 0.00 | 0.00 | 41 | 1014.5 |
| 20260507180504 | 66 | 211 | 6.0 | 17.0 | 0.00 | 0.00 | 0.00 | 41 | 1014.5 |
| 20260507180404 | 66 | 211 | 6.0 | 17.0 | 0.00 | 0.00 | 0.00 | 42 | 1014.4 |
| 20260507180304 | 66 | 209 | 6.0 | 17.0 | 0.00 | 0.00 | 0.00 | 40 | 1014.5 |
| 20260507180205 | 66 | 210 | 6.0 | 17.0 | 0.00 | 0.00 | 0.00 | 41 | 1014.6 |
| 20260507180105 | 66 | 208 | 6.0 | 17.0 | 0.00 | 0.00 | 0.00 | 43 | 1014.5 |
| 20260507180004 | 66 | 208 | 6.0 | 17.0 | 0.00 | 0.00 | 0.00 | 42 | 1014.6 |
| 20260507175904 | 66 | 207 | 6.0 | 17.0 | 0.00 | 0.00 | 0.00 | 40 | 1014.6 |
| 20260507175804 | 66 | 205 | 5.0 | 17.0 | 0.00 | 0.00 | 0.00 | 40 | 1014.6 |
| 20260507175704 | 66 | 204 | 4.0 | 12.0 | 0.00 | 0.00 | 0.00 | 42 | 1014.6 |
| 20260507175504 | 66 | 206 | 4.0 | 11.0 | 0.00 | 0.00 | 0.00 | 40 | 1014.6 |
| 20260507175404 | 66 | 207 | 4.0 | 11.0 | 0.00 | 0.00 | 0.00 | 40 | 1014.7 |
| 20260507175204 | 66 | 204 | 4.0 | 11.0 | 0.00 | 0.00 | 0.00 | 42 | 1014.7 |
| 20260507175104 | 66 | 207 | 3.0 | 8.0 | 0.00 | 0.00 | 0.00 | 42 | 1014.7 |
| 20260507175004 | 66 | 206 | 4.0 | 9.0 | 0.00 | 0.00 | 0.00 | 42 | 1014.7 |
| 20260507174904 | 66 | 205 | 4.0 | 10.0 | 0.00 | 0.00 | 0.00 | 41 | 1014.7 |
| 20260507174804 | 66 | 207 | 4.0 | 10.0 | 0.00 | 0.00 | 0.00 | 40 | 1014.7 |
| 20260507174704 | 66 | 207 | 4.0 | 10.0 | 0.00 | 0.00 | 0.00 | 38 | 1014.7 |
| 20260507174504 | 66 | 203 | 5.0 | 11.0 | 0.00 | 0.00 | 0.00 | 43 | 1014.8 |
| 20260507174404 | 66 | 201 | 5.0 | 11.0 | 0.00 | 0.00 | 0.00 | 42 | 1014.9 |
| 20260507174204 | 65 | 203 | 5.0 | 11.0 | 0.00 | 0.00 | 0.00 | 42 | 1014.8 |
| 20260507174104 | 65 | 203 | 5.0 | 11.0 | 0.00 | 0.00 | 0.00 | 42 | 1014.9 |
| 20260507174004 | 66 | 208 | 4.0 | 11.0 | 0.00 | 0.00 | 0.00 | 43 | 1014.9 |
| 20260507173904 | 66 | 209 | 4.0 | 11.0 | 0.00 | 0.00 | 0.00 | 44 | 1015.0 |
| 20260507173804 | 66 | 212 | 4.0 | 11.0 | 0.00 | 0.00 | 0.00 | 43 | 1015.0 |
| 20260507173705 | 66 | 215 | 4.0 | 11.0 | 0.00 | 0.00 | 0.00 | 43 | 1015.0 |
| 20260507173604 | 66 | 215 | 4.0 | 9.0 | 0.00 | 0.00 | 0.00 | 43 | 1014.9 |
| 20260507173505 | 65 | 218 | 4.0 | 9.0 | 0.00 | 0.00 | 0.00 | 45 | 1015.0 |
| 20260507173404 | 65 | 224 | 3.0 | 9.0 | 0.00 | 0.00 | 0.00 | 45 | 1015.0 |
| 20260507173304 | 65 | 223 | 3.0 | 9.0 | 0.00 | 0.00 | 0.00 | 44 | 1015.0 |
| 20260507173204 | 65 | 223 | 3.0 | 9.0 | 0.00 | 0.00 | 0.00 | 43 | 1015.1 |
| 20260507173104 | 65 | 223 | 3.0 | 9.0 | 0.00 | 0.00 | 0.00 | 42 | 1015.1 |
| 20260507173004 | 65 | 219 | 4.0 | 10.0 | 0.00 | 0.00 | 0.00 | 43 | 1015.2 |
| 20260507172904 | 65 | 217 | 4.0 | 13.0 | 0.00 | 0.00 | 0.00 | 43 | 1015.2 |
| 20260507172704 | 65 | 213 | 5.0 | 13.0 | 0.00 | 0.00 | 0.00 | 42 | 1015.2 |
| 20260507172604 | 65 | 214 | 4.0 | 13.0 | 0.00 | 0.00 | 0.00 | 43 | 1015.3 |
| 20260507172504 | 65 | 209 | 4.0 | 13.0 | 0.00 | 0.00 | 0.00 | 44 | 1015.2 |
| 20260507172404 | 64 | 202 | 4.0 | 13.0 | 0.00 | 0.00 | 0.00 | 46 | 1015.2 |
| 20260507172307 | 64 | 199 | 5.0 | 13.0 | 0.00 | 0.00 | 0.00 | 44 | 1015.2 |
| 20260507172204 | 64 | 199 | 5.0 | 13.0 | 0.00 | 0.00 | 0.00 | 44 | 1015.4 |
| 20260507172104 | 64 | 199 | 6.0 | 13.0 | 0.00 | 0.00 | 0.00 | 43 | 1015.3 |
| 20260507171904 | 64 | 199 | 5.0 | 13.0 | 0.00 | 0.00 | 0.00 | 44 | 1015.4 |
| 20260507171804 | 64 | 196 | 4.0 | 13.0 | 0.00 | 0.00 | 0.00 | 47 | 1015.5 |
| 20260507171704 | 64 | 196 | 5.0 | 13.0 | 0.00 | 0.00 | 0.00 | 48 | 1015.4 |
| 20260507171604 | 64 | 197 | 5.0 | 13.0 | 0.00 | 0.00 | 0.00 | 46 | 1015.4 |
| 20260507171504 | 64 | 201 | 5.0 | 13.0 | 0.00 | 0.00 | 0.00 | 45 | 1015.4 |
| 20260507171404 | 64 | 205 | 5.0 | 13.0 | 0.00 | 0.00 | 0.00 | 46 | 1015.5 |
| 20260507171304 | 64 | 208 | 5.0 | 13.0 | 0.00 | 0.00 | 0.00 | 45 | 1015.5 |
| 20260507171204 | 64 | 206 | 5.0 | 13.0 | 0.00 | 0.00 | 0.00 | 46 | 1015.5 |
| 20260507171104 | 64 | 205 | 5.0 | 13.0 | 0.00 | 0.00 | 0.00 | 47 | 1015.5 |
| 20260507171005 | 63 | 206 | 5.0 | 13.0 | 0.00 | 0.00 | 0.00 | 46 | 1015.6 |
| 20260507170904 | 63 | 205 | 5.0 | 13.0 | 0.00 | 0.00 | 0.00 | 46 | 1015.6 |
| 20260507170804 | 63 | 206 | 6.0 | 13.0 | 0.00 | 0.00 | 0.00 | 45 | 1015.6 |
| 20260507170704 | 63 | 209 | 5.0 | 13.0 | 0.00 | 0.00 | 0.00 | 45 | 1015.7 |
| 20260507170604 | 63 | 212 | 5.0 | 13.0 | 0.00 | 0.00 | 0.00 | 46 | 1015.6 |
| 20260507170504 | 63 | 213 | 5.0 | 11.0 | 0.00 | 0.00 | 0.00 | 46 | 1015.7 |
| 20260507170404 | 63 | 211 | 6.0 | 13.0 | 0.00 | 0.00 | 0.00 | 45 | 1015.7 |
| 20260507170304 | 63 | 210 | 5.0 | 13.0 | 0.00 | 0.00 | 0.00 | 45 | 1015.7 |
| 20260507170204 | 63 | 210 | 5.0 | 13.0 | 0.00 | 0.00 | 0.00 | 47 | 1015.7 |
| 20260507170104 | 63 | 208 | 5.0 | 13.0 | 0.00 | 0.00 | 0.00 | 47 | 1015.8 |
| 20260507170004 | 63 | 208 | 5.0 | 13.0 | 0.00 | 0.00 | 0.00 | 47 | 1015.7 |
| 20260507165904 | 63 | 211 | 5.0 | 13.0 | 0.00 | 0.00 | 0.00 | 47 | 1015.7 |
| 20260507165804 | 63 | 209 | 5.0 | 13.0 | 0.00 | 0.00 | 0.00 | 48 | 1015.7 |
| 20260507165704 | 63 | 205 | 5.0 | 13.0 | 0.00 | 0.00 | 0.00 | 48 | 1015.7 |
| 20260507165604 | 63 | 205 | 5.0 | 13.0 | 0.00 | 0.00 | 0.00 | 48 | 1015.7 |
| 20260507165504 | 63 | 204 | 5.0 | 13.0 | 0.00 | 0.00 | 0.00 | 48 | 1015.8 |
| 20260507165306 | 62 | 202 | 5.0 | 11.0 | 0.00 | 0.00 | 0.00 | 49 | 1015.8 |
| 20260507165205 | 62 | 202 | 5.0 | 11.0 | 0.00 | 0.00 | 0.00 | 47 | 1015.8 |
| 20260507165004 | 62 | 202 | 5.0 | 14.0 | 0.00 | 0.00 | 0.00 | 48 | 1015.9 |
| 20260507164804 | 62 | 202 | 5.0 | 14.0 | 0.00 | 0.00 | 0.00 | 49 | 1016.0 |
| 20260507164704 | 62 | 205 | 5.0 | 14.0 | 0.00 | 0.00 | 0.00 | 49 | 1016.0 |
| 20260507164604 | 62 | 204 | 5.0 | 14.0 | 0.00 | 0.00 | 0.00 | 49 | 1016.1 |
| 20260507164504 | 62 | 208 | 5.0 | 14.0 | 0.00 | 0.00 | 0.00 | 49 | 1016.0 |
| 20260507164404 | 62 | 209 | 5.0 | 14.0 | 0.00 | 0.00 | 0.00 | 48 | 1016.0 |
| 20260507164303 | 62 | 214 | 5.0 | 14.0 | 0.00 | 0.00 | 0.00 | 48 | 1016.0 |
| 20260507164204 | 62 | 220 | 5.0 | 14.0 | 0.00 | 0.00 | 0.00 | 49 | 1016.0 |
| 20260507164104 | 62 | 223 | 4.0 | 10.0 | 0.00 | 0.00 | 0.00 | 49 | 1016.0 |
| 20260507164004 | 62 | 230 | 4.0 | 10.0 | 0.00 | 0.00 | 0.00 | 50 | 1016.0 |
| 20260507163704 | 62 | 226 | 5.0 | 14.0 | 0.00 | 0.00 | 0.00 | 51 | 1016.1 |
| 20260507163604 | 62 | 224 | 5.0 | 14.0 | 0.00 | 0.00 | 0.00 | 52 | 1016.1 |
| 20260507163503 | 62 | 218 | 5.0 | 14.0 | 0.00 | 0.00 | 0.00 | 52 | 1016.1 |
| 20260507163404 | 62 | 217 | 6.0 | 14.0 | 0.00 | 0.00 | 0.00 | 52 | 1016.1 |
| 20260507163304 | 61 | 218 | 6.0 | 14.0 | 0.00 | 0.00 | 0.00 | 51 | 1016.0 |
| 20260507163204 | 61 | 218 | 6.0 | 14.0 | 0.00 | 0.00 | 0.00 | 51 | 1016.0 |
| 20260507163104 | 62 | 217 | 6.0 | 14.0 | 0.00 | 0.00 | 0.00 | 50 | 1016.0 |
| 20260507163004 | 62 | 213 | 5.0 | 14.0 | 0.00 | 0.00 | 0.00 | 52 | 1016.1 |
| 20260507162904 | 62 | 212 | 5.0 | 14.0 | 0.00 | 0.00 | 0.00 | 52 | 1016.1 |
| 20260507162804 | 62 | 211 | 5.0 | 13.0 | 0.00 | 0.00 | 0.00 | 52 | 1016.0 |
| 20260507162703 | 61 | 211 | 5.0 | 13.0 | 0.00 | 0.00 | 0.00 | 52 | 1016.1 |
| 20260507162604 | 61 | 212 | 5.0 | 13.0 | 0.00 | 0.00 | 0.00 | 51 | 1016.2 |
| 20260507162504 | 61 | 215 | 5.0 | 11.0 | 0.00 | 0.00 | 0.00 | 51 | 1016.1 |
| 20260507162404 | 61 | 214 | 5.0 | 12.0 | 0.00 | 0.00 | 0.00 | 52 | 1016.1 |
| 20260507162306 | 61 | 215 | 5.0 | 12.0 | 0.00 | 0.00 | 0.00 | 53 | 1016.2 |
| 20260507162204 | 61 | 212 | 5.0 | 12.0 | 0.00 | 0.00 | 0.00 | 53 | 1016.2 |
| 20260507162104 | 61 | 212 | 5.0 | 12.0 | 0.00 | 0.00 | 0.00 | 52 | 1016.2 |
| 20260507162004 | 61 | 213 | 5.0 | 15.0 | 0.00 | 0.00 | 0.00 | 53 | 1016.2 |
| 20260507161903 | 61 | 212 | 5.0 | 15.0 | 0.00 | 0.00 | 0.00 | 52 | 1016.2 |
| 20260507161804 | 61 | 213 | 5.0 | 15.0 | 0.00 | 0.00 | 0.00 | 52 | 1016.2 |
| 20260507161604 | 61 | 215 | 5.0 | 15.0 | 0.00 | 0.00 | 0.00 | 53 | 1016.2 |
| 20260507161504 | 61 | 213 | 5.0 | 15.0 | 0.00 | 0.00 | 0.00 | 52 | 1016.2 |
| 20260507161404 | 61 | 214 | 6.0 | 15.0 | 0.00 | 0.00 | 0.00 | 53 | 1016.3 |
| 20260507161304 | 61 | 208 | 5.0 | 15.0 | 0.00 | 0.00 | 0.00 | 53 | 1016.3 |
| 20260507161204 | 61 | 207 | 6.0 | 15.0 | 0.00 | 0.00 | 0.00 | 53 | 1016.2 |
| 20260507161004 | 61 | 207 | 6.0 | 13.0 | 0.00 | 0.00 | 0.00 | 53 | 1016.4 |
| 20260507160904 | 60 | 211 | 6.0 | 13.0 | 0.00 | 0.00 | 0.00 | 54 | 1016.3 |
| 20260507160804 | 60 | 210 | 6.0 | 13.0 | 0.00 | 0.00 | 0.00 | 54 | 1016.4 |
| 20260507160604 | 60 | 215 | 6.0 | 15.0 | 0.00 | 0.00 | 0.00 | 54 | 1016.4 |
| 20260507160504 | 60 | 216 | 5.0 | 15.0 | 0.00 | 0.00 | 0.00 | 54 | 1016.3 |
| 20260507160404 | 60 | 217 | 5.0 | 15.0 | 0.00 | 0.00 | 0.00 | 54 | 1016.3 |
| 20260507160304 | 60 | 221 | 5.0 | 15.0 | 0.00 | 0.00 | 0.00 | 54 | 1016.4 |
| 20260507160204 | 60 | 224 | 5.0 | 15.0 | 0.00 | 0.00 | 0.00 | 54 | 1016.3 |
| 20260507160005 | 60 | 231 | 4.0 | 15.0 | 0.00 | 0.00 | 0.00 | 55 | 1016.3 |
| 20260507155904 | 60 | 231 | 4.0 | 15.0 | 0.00 | 0.00 | 0.00 | 54 | 1016.3 |
| 20260507155804 | 60 | 239 | 4.0 | 15.0 | 0.00 | 0.00 | 0.00 | 54 | 1016.3 |
| 20260507155705 | 60 | 235 | 4.0 | 9.0 | 0.00 | 0.00 | 0.00 | 56 | 1016.3 |
| 20260507155604 | 60 | 235 | 4.0 | 7.0 | 0.00 | 0.00 | 0.00 | 55 | 1016.2 |
| 20260507155507 | 60 | 235 | 4.0 | 7.0 | 0.00 | 0.00 | 0.00 | 57 | 1016.2 |
| 20260507001204 | 58 | 30 | 1.0 | 5.0 | 0.00 | 0.21 | 0.21 | 51 | 1016.9 |
| 20260507001104 | 58 | 29 | 1.0 | 5.0 | 0.00 | 0.21 | 0.21 | 50 | 1016.9 |
| 20260507001004 | 58 | 42 | 1.0 | 5.0 | 0.00 | 0.21 | 0.21 | 51 | 1017.0 |
| 20260507000904 | 58 | 43 | 1.0 | 5.0 | 0.00 | 0.21 | 0.21 | 51 | 1017.0 |
| 20260507000804 | 58 | 48 | 1.0 | 5.0 | 0.00 | 0.21 | 0.21 | 51 | 1017.0 |
| 20260507000705 | 58 | 43 | 1.0 | 5.0 | 0.00 | 0.21 | 0.21 | 51 | 1017.0 |
| 20260507000605 | 58 | 44 | 1.0 | 5.0 | 0.00 | 0.21 | 0.21 | 51 | 1017.0 |
| 20260507000505 | 58 | 40 | 2.0 | 6.0 | 0.00 | 0.21 | 0.21 | 51 | 1016.9 |
| 20260507000405 | 58 | 37 | 2.0 | 6.0 | 0.00 | 0.21 | 0.21 | 51 | 1016.9 |
| 20260507000306 | 58 | 20 | 2.0 | 6.0 | 0.00 | 0.21 | 0.21 | 50 | 1016.9 |
| 20260507000205 | 58 | 14 | 2.0 | 6.0 | 0.00 | 0.21 | 0.21 | 51 | 1016.8 |
| 20260507000105 | 58 | 9 | 3.0 | 6.0 | 0.00 | 0.21 | 0.21 | 50 | 1016.8 |
| 20260507000005 | 58 | 358 | 3.0 | 6.0 | 0.00 | 0.21 | 0.21 | 50 | 1016.8 |
| 20260506235904 | 58 | 347 | 3.0 | 8.0 | 0.00 | 0.21 | 0.21 | 49 | 1016.9 |
| 20260506235804 | 58 | 338 | 3.0 | 8.0 | 0.00 | 0.21 | 0.21 | 49 | 1016.9 |
| 20260506235704 | 58 | 335 | 3.0 | 8.0 | 0.00 | 0.21 | 0.21 | 49 | 1016.8 |
| 20260506235604 | 58 | 329 | 3.0 | 8.0 | 0.00 | 0.21 | 0.21 | 49 | 1016.9 |
| 20260506235504 | 58 | 327 | 3.0 | 8.0 | 0.00 | 0.21 | 0.21 | 50 | 1016.9 |
| 20260506235306 | 58 | 331 | 3.0 | 8.0 | 0.00 | 0.21 | 0.21 | 49 | 1016.9 |
| 20260506235204 | 58 | 332 | 3.0 | 8.0 | 0.00 | 0.21 | 0.21 | 49 | 1016.9 |
| 20260506235104 | 58 | 330 | 3.0 | 8.0 | 0.00 | 0.21 | 0.21 | 49 | 1016.9 |
| 20260506235004 | 58 | 333 | 3.0 | 8.0 | 0.00 | 0.21 | 0.21 | 49 | 1016.9 |
| 20260506234904 | 59 | 337 | 3.0 | 8.0 | 0.00 | 0.21 | 0.21 | 48 | 1016.9 |
| 20260506234705 | 59 | 339 | 3.0 | 9.0 | 0.00 | 0.21 | 0.21 | 50 | 1016.8 |
| 20260506234604 | 59 | 343 | 3.0 | 9.0 | 0.00 | 0.21 | 0.21 | 49 | 1016.8 |
| 20260506234505 | 59 | 342 | 3.0 | 9.0 | 0.00 | 0.21 | 0.21 | 49 | 1016.8 |
| 20260506234404 | 59 | 344 | 4.0 | 9.0 | 0.00 | 0.21 | 0.21 | 48 | 1016.8 |
| 20260506234304 | 59 | 344 | 4.0 | 9.0 | 0.00 | 0.21 | 0.21 | 47 | 1016.8 |
| 20260506234204 | 59 | 346 | 4.0 | 9.0 | 0.00 | 0.21 | 0.21 | 47 | 1016.8 |
| 20260506234105 | 59 | 354 | 3.0 | 9.0 | 0.00 | 0.21 | 0.21 | 47 | 1016.8 |
| 20260506234004 | 60 | 359 | 3.0 | 9.0 | 0.00 | 0.21 | 0.21 | 47 | 1016.8 |
| 20260506233904 | 60 | 4 | 3.0 | 9.0 | 0.00 | 0.21 | 0.21 | 47 | 1016.8 |
| 20260506233804 | 60 | 8 | 3.0 | 7.0 | 0.00 | 0.21 | 0.21 | 47 | 1016.8 |
| 20260506233705 | 60 | 16 | 3.0 | 7.0 | 0.00 | 0.21 | 0.21 | 47 | 1016.8 |
| 20260506233505 | 60 | 27 | 2.0 | 7.0 | 0.00 | 0.21 | 0.21 | 47 | 1016.8 |
| 20260506233405 | 60 | 31 | 2.0 | 7.0 | 0.00 | 0.21 | 0.21 | 49 | 1016.7 |
| 20260506233305 | 59 | 31 | 2.0 | 7.0 | 0.00 | 0.21 | 0.21 | 48 | 1016.7 |
| 20260506233105 | 59 | 13 | 2.0 | 7.0 | 0.00 | 0.21 | 0.21 | 48 | 1016.8 |
| 20260506233005 | 59 | 16 | 2.0 | 7.0 | 0.00 | 0.21 | 0.21 | 48 | 1016.8 |
| 20260506232905 | 59 | 28 | 2.0 | 7.0 | 0.00 | 0.21 | 0.21 | 49 | 1016.8 |
| 20260506232805 | 59 | 33 | 2.0 | 8.0 | 0.00 | 0.21 | 0.21 | 50 | 1016.7 |
| 20260506232705 | 59 | 34 | 2.0 | 8.0 | 0.00 | 0.21 | 0.21 | 49 | 1016.7 |
| 20260506232604 | 59 | 29 | 2.0 | 8.0 | 0.00 | 0.21 | 0.21 | 50 | 1016.7 |
| 20260506232504 | 59 | 29 | 3.0 | 8.0 | 0.00 | 0.21 | 0.21 | 49 | 1016.7 |
| 20260506232404 | 59 | 24 | 3.0 | 8.0 | 0.00 | 0.21 | 0.21 | 49 | 1016.7 |
| 20260506232306 | 58 | 22 | 3.0 | 8.0 | 0.00 | 0.21 | 0.21 | 49 | 1016.6 |
| 20260506232205 | 58 | 19 | 4.0 | 8.0 | 0.00 | 0.21 | 0.21 | 49 | 1016.6 |
| 20260506232104 | 58 | 18 | 4.0 | 8.0 | 0.00 | 0.21 | 0.21 | 49 | 1016.7 |
| 20260506232004 | 58 | 18 | 4.0 | 8.0 | 0.00 | 0.21 | 0.21 | 48 | 1016.7 |
| 20260506231904 | 58 | 13 | 4.0 | 8.0 | 0.00 | 0.21 | 0.21 | 48 | 1016.6 |
| 20260506231805 | 58 | 6 | 4.0 | 8.0 | 0.00 | 0.21 | 0.21 | 49 | 1016.6 |
| 20260506231605 | 59 | 9 | 4.0 | 8.0 | 0.00 | 0.21 | 0.21 | 48 | 1016.6 |
| 20260506231312 | 59 | 8 | 3.0 | 8.0 | 0.00 | 0.21 | 0.21 | 49 | 1016.6 |
| 20260506231205 | 59 | 11 | 3.0 | 8.0 | 0.00 | 0.21 | 0.21 | 48 | 1016.6 |
| 20260506231105 | 59 | 15 | 3.0 | 8.0 | 0.00 | 0.21 | 0.21 | 48 | 1016.6 |
| 20260506231005 | 59 | 20 | 3.0 | 8.0 | 0.00 | 0.21 | 0.21 | 48 | 1016.6 |
| 20260506230905 | 59 | 40 | 2.0 | 8.0 | 0.00 | 0.21 | 0.21 | 47 | 1016.6 |
| 20260506230705 | 60 | 64 | 2.0 | 7.0 | 0.00 | 0.21 | 0.21 | 48 | 1016.6 |
| 20260506230605 | 60 | 62 | 2.0 | 7.0 | 0.00 | 0.21 | 0.21 | 47 | 1016.6 |
| 20260506230505 | 60 | 63 | 2.0 | 7.0 | 0.00 | 0.21 | 0.21 | 47 | 1016.6 |
| 20260506230404 | 60 | 62 | 2.0 | 7.0 | 0.00 | 0.21 | 0.21 | 46 | 1016.6 |
| 20260506230304 | 60 | 49 | 2.0 | 7.0 | 0.00 | 0.21 | 0.21 | 46 | 1016.6 |
| 20260506230104 | 60 | 30 | 2.0 | 7.0 | 0.00 | 0.21 | 0.21 | 45 | 1016.6 |
| 20260506230005 | 60 | 19 | 2.0 | 6.0 | 0.00 | 0.21 | 0.21 | 46 | 1016.6 |
| 20260506225904 | 60 | 358 | 2.0 | 5.0 | 0.00 | 0.21 | 0.21 | 46 | 1016.6 |
| 20260506225805 | 60 | 1 | 2.0 | 5.0 | 0.00 | 0.21 | 0.21 | 47 | 1016.6 |
| 20260506225605 | 59 | 9 | 2.0 | 5.0 | 0.00 | 0.21 | 0.21 | 47 | 1016.6 |
| 20260506225505 | 60 | 358 | 2.0 | 5.0 | 0.00 | 0.21 | 0.21 | 46 | 1016.6 |
| 20260506225404 | 60 | 5 | 2.0 | 5.0 | 0.00 | 0.21 | 0.21 | 45 | 1016.6 |
| 20260506225306 | 60 | 30 | 2.0 | 8.0 | 0.00 | 0.21 | 0.21 | 46 | 1016.6 |
| 20260506225204 | 60 | 43 | 2.0 | 8.0 | 0.00 | 0.21 | 0.21 | 45 | 1016.6 |
| 20260506225104 | 60 | 51 | 2.0 | 8.0 | 0.00 | 0.21 | 0.21 | 46 | 1016.6 |
| 20260506225004 | 60 | 54 | 2.0 | 8.0 | 0.00 | 0.21 | 0.21 | 46 | 1016.6 |
| 20260506224904 | 60 | 54 | 2.0 | 8.0 | 0.00 | 0.21 | 0.21 | 45 | 1016.6 |
| 20260506224804 | 60 | 55 | 2.0 | 8.0 | 0.00 | 0.21 | 0.21 | 46 | 1016.6 |
| 20260506224705 | 60 | 49 | 2.0 | 8.0 | 0.00 | 0.21 | 0.21 | 45 | 1016.6 |
| 20260506224604 | 60 | 47 | 2.0 | 8.0 | 0.00 | 0.21 | 0.21 | 45 | 1016.5 |
| 20260506224504 | 60 | 52 | 2.0 | 8.0 | 0.00 | 0.21 | 0.21 | 45 | 1016.5 |
| 20260506224404 | 60 | 46 | 2.0 | 8.0 | 0.00 | 0.21 | 0.21 | 44 | 1016.5 |
| 20260506224304 | 60 | 47 | 2.0 | 5.0 | 0.00 | 0.21 | 0.21 | 44 | 1016.5 |
| 20260506224204 | 60 | 52 | 2.0 | 6.0 | 0.00 | 0.21 | 0.21 | 44 | 1016.5 |
| 20260506224104 | 60 | 56 | 2.0 | 9.0 | 0.00 | 0.21 | 0.21 | 44 | 1016.5 |
| 20260506224004 | 60 | 59 | 2.0 | 9.0 | 0.00 | 0.21 | 0.21 | 46 | 1016.5 |
| 20260506223904 | 60 | 46 | 2.0 | 9.0 | 0.00 | 0.21 | 0.21 | 46 | 1016.5 |
| 20260506223804 | 60 | 37 | 2.0 | 9.0 | 0.00 | 0.21 | 0.21 | 46 | 1016.4 |
| 20260506223604 | 60 | 42 | 2.0 | 9.0 | 0.00 | 0.21 | 0.21 | 46 | 1016.4 |
| 20260506223404 | 60 | 35 | 2.0 | 9.0 | 0.00 | 0.21 | 0.21 | 46 | 1016.4 |
| 20260506223304 | 60 | 34 | 3.0 | 9.0 | 0.00 | 0.21 | 0.21 | 45 | 1016.4 |
| 20260506223204 | 60 | 23 | 3.0 | 9.0 | 0.00 | 0.21 | 0.21 | 46 | 1016.4 |
| 20260506223104 | 60 | 18 | 3.0 | 8.0 | 0.00 | 0.21 | 0.21 | 45 | 1016.4 |
| 20260506223004 | 60 | 17 | 3.0 | 8.0 | 0.00 | 0.21 | 0.21 | 44 | 1016.4 |
| 20260506222904 | 60 | 26 | 3.0 | 8.0 | 0.00 | 0.21 | 0.21 | 45 | 1016.3 |
| 20260506222804 | 60 | 34 | 3.0 | 8.0 | 0.00 | 0.21 | 0.21 | 46 | 1016.4 |
| 20260506222704 | 60 | 40 | 3.0 | 8.0 | 0.00 | 0.21 | 0.21 | 46 | 1016.4 |
| 20260506222604 | 60 | 38 | 3.0 | 8.0 | 0.00 | 0.21 | 0.21 | 45 | 1016.4 |
| 20260506222306 | 60 | 55 | 2.0 | 7.0 | 0.00 | 0.21 | 0.21 | 45 | 1016.4 |
| 20260506222204 | 60 | 67 | 2.0 | 6.0 | 0.00 | 0.21 | 0.21 | 46 | 1016.4 |
| 20260506222004 | 60 | 80 | 2.0 | 6.0 | 0.00 | 0.21 | 0.21 | 45 | 1016.4 |
| 20260506221904 | 60 | 80 | 2.0 | 6.0 | 0.00 | 0.21 | 0.21 | 44 | 1016.4 |
| 20260506221804 | 60 | 77 | 2.0 | 5.0 | 0.00 | 0.21 | 0.21 | 45 | 1016.4 |
| 20260506221705 | 60 | 76 | 2.0 | 6.0 | 0.00 | 0.21 | 0.21 | 46 | 1016.4 |
| 20260506221604 | 60 | 73 | 2.0 | 6.0 | 0.00 | 0.21 | 0.21 | 46 | 1016.4 |
| 20260506221504 | 60 | 68 | 2.0 | 6.0 | 0.00 | 0.21 | 0.21 | 47 | 1016.4 |
| 20260506221404 | 60 | 66 | 2.0 | 6.0 | 0.00 | 0.21 | 0.21 | 46 | 1016.4 |
| 20260506221304 | 60 | 65 | 2.0 | 6.0 | 0.00 | 0.21 | 0.21 | 45 | 1016.4 |
| 20260506221204 | 60 | 65 | 2.0 | 6.0 | 0.00 | 0.21 | 0.21 | 45 | 1016.4 |
| 20260506221104 | 60 | 65 | 2.0 | 6.0 | 0.00 | 0.21 | 0.21 | 45 | 1016.4 |
| 20260506220904 | 60 | 46 | 2.0 | 6.0 | 0.00 | 0.21 | 0.21 | 46 | 1016.3 |
| 20260506220804 | 60 | 41 | 2.0 | 6.0 | 0.00 | 0.21 | 0.21 | 45 | 1016.4 |
| 20260506220704 | 60 | 31 | 2.0 | 7.0 | 0.00 | 0.21 | 0.21 | 46 | 1016.3 |
| 20260506220504 | 60 | 31 | 2.0 | 7.0 | 0.00 | 0.21 | 0.21 | 46 | 1016.3 |
| 20260506220404 | 60 | 32 | 2.0 | 7.0 | 0.00 | 0.21 | 0.21 | 46 | 1016.4 |